Weather History for KIBM - August, 2013

Change the Weather History Date:

Thursday, August 8, 2013

  Actual Average (KSNY) Record (KSNY)
Temperature  
Mean Temperature 66 °F 75 °F  
Max Temperature 79 °F 89 °F 104 °F (1969)
Min Temperature 54 °F 60 °F 48 °F (1971)
Degree Days  
Heating Degree Days 0 0  
Month to date heating degree days 0  
Since 1 June heating degree days 62  
Since 1 July heating degree days 3  
Cooling Degree Days 2 10  
Month to date cooling degree days 80  
Year to date cooling degree days 558  
Since 1 June cooling degree days 536  
Growing Degree Days 16 (Base 50)    
Moisture  
Dew Point 55 °F    
Average Humidity 68    
Maximum Humidity 96    
Minimum Humidity 38    
Precipitation  
Precipitation 0.01 in 0.08 in 1.76 in (1974)
Month to date precipitation 0.69  
Year to date precipitation 13.59  
Sea Level Pressure  
Sea Level Pressure 30.13 in    
Wind  
Wind Speed 6 mph (SSE)    
Max Wind Speed 16 mph    
Max Gust Speed 25 mph    
Visibility 9 miles    
Events Rain    
T = Trace of Precipitation, MM = Missing Value Source: NWS Daily Summary

Daily Weather History Graph

Daily Weather History Graph

Search for Another Location

Airport or City:

Trip Planner

Search our weather history database for the weather conditions in past years. The results will help you decide how hot, cold, wet, or windy it might be!

Date:

Astronomy

Aug. 08, 2013 Rise Set
Actual Time 6:57 AM CDT 9:02 PM CDT
Civil Twilight 6:27 AM CDT 9:32 PM CDT
Nautical Twilight 5:49 AM CDT 10:09 PM CDT
Astronomical Twilight 5:09 AM CDT 10:49 PM CDT
Moon 8:48 AM CDT (8/8) 9:40 PM CDT (8/8)
Length of Visible Light 15h 05m
Length of Day
14h 05m
Waxing Crescent, 3% of the Moon is Illuminated
Aug 8
Waxing Crescent
Aug 14
First Quarter
Aug 20
Full
Aug 28
Last Quarter
Sep 5
New

Hourly Weather History & Observations

Time (CDT) Temp. Dew Point Humidity Pressure Visibility Wind Dir Wind Speed Gust Speed Precip Events Conditions
12:15 AM 58.1 °F 54.0 °F 86% 30.10 in 10.0 mi SSE 5.8 mph - N/A   Clear
12:35 AM 57.4 °F 53.8 °F 88% 30.10 in 10.0 mi Calm Calm - N/A   Clear
12:55 AM 55.4 °F 52.5 °F 90% 30.10 in 10.0 mi SE 4.6 mph - N/A   Clear
1:15 AM 55.6 °F 53.1 °F 91% 30.11 in 10.0 mi ESE 5.8 mph - N/A   Clear
1:35 AM 57.2 °F 54.7 °F 91% 30.12 in 10.0 mi ESE 6.9 mph - N/A   Clear
2:15 AM 57.2 °F 54.7 °F 91% 30.11 in 10.0 mi SE 8.1 mph - N/A   Clear
2:35 AM 56.3 °F 54.0 °F 92% 30.09 in 10.0 mi SSE 8.1 mph - N/A   Clear
2:55 AM 56.7 °F 54.5 °F 92% 30.08 in 10.0 mi South 8.1 mph - N/A   Clear
3:15 AM 55.6 °F 53.6 °F 93% 30.08 in 10.0 mi South 5.8 mph - N/A   Clear
3:35 AM 55.0 °F 53.2 °F 94% 30.08 in 10.0 mi South 5.8 mph - N/A   Clear
3:55 AM 54.9 °F 53.2 °F 94% 30.08 in 10.0 mi SSE 3.5 mph - N/A   Clear
4:15 AM 55.2 °F 53.8 °F 95% 30.08 in 7.0 mi Calm Calm - N/A   Scattered Clouds
4:35 AM 56.1 °F 54.7 °F 95% 30.10 in 7.0 mi Calm Calm - N/A   Overcast
4:55 AM 57.2 °F 55.6 °F 94% 30.10 in 10.0 mi Calm Calm - N/A   Overcast
5:15 AM 58.8 °F 56.7 °F 93% 30.09 in 10.0 mi South 3.5 mph - N/A   Overcast
5:35 AM 59.9 °F 57.7 °F 93% 30.10 in 7.0 mi Calm Calm - N/A   Overcast
5:55 AM 59.9 °F 58.1 °F 94% 30.10 in 4.0 mi Calm Calm - N/A   Overcast
6:15 AM 59.9 °F 58.5 °F 95% 30.10 in 1.0 mi South 3.5 mph - N/A   Overcast
6:35 AM 60.1 °F 59.0 °F 96% 30.11 in 1.0 mi South 4.6 mph - N/A   Overcast
6:55 AM 59.9 °F 58.5 °F 95% 30.11 in 5.0 mi Calm Calm - N/A   Overcast
7:15 AM 59.9 °F 58.1 °F 94% 30.12 in 3.0 mi Calm Calm - N/A   Overcast
7:35 AM 60.1 °F 58.5 °F 94% 30.13 in 2.5 mi Calm Calm - N/A   Overcast
7:55 AM 60.8 °F 58.6 °F 93% 30.12 in 5.0 mi Calm Calm - N/A   Overcast
8:15 AM 61.9 °F 59.0 °F 90% 30.13 in 10.0 mi Calm Calm - N/A   Overcast
8:35 AM 62.8 °F 58.1 °F 85% 30.14 in 10.0 mi SSE 4.6 mph - N/A   Overcast
8:55 AM 63.0 °F 57.4 °F 82% 30.14 in 10.0 mi South 3.5 mph - N/A   Overcast
9:15 AM 63.5 °F 57.6 °F 81% 30.14 in 10.0 mi SSE 4.6 mph - N/A   Overcast
9:35 AM 64.0 °F 57.4 °F 79% 30.14 in 10.0 mi South 5.8 mph - N/A   Overcast
9:55 AM 64.8 °F 57.2 °F 76% 30.15 in 10.0 mi South 5.8 mph - N/A   Overcast
10:15 AM 65.1 °F 57.0 °F 75% 30.15 in 10.0 mi South 6.9 mph - N/A   Overcast
10:35 AM 66.2 °F 57.0 °F 72% 30.15 in 10.0 mi South 8.1 mph - N/A   Overcast
10:55 AM 67.6 °F 56.7 °F 68% 30.15 in 10.0 mi SSE 4.6 mph - N/A   Overcast
11:15 AM 69.3 °F 57.0 °F 65% 30.15 in 10.0 mi SSW 5.8 mph - N/A   Overcast
11:35 AM 68.7 °F 56.8 °F 66% 30.15 in 10.0 mi SSW 3.5 mph - N/A   Mostly Cloudy
11:55 AM 71.4 °F 57.0 °F 60% 30.15 in 10.0 mi SSE 6.9 mph - N/A   Mostly Cloudy
12:15 PM 71.8 °F 55.6 °F 57% 30.15 in 10.0 mi SSE 4.6 mph - N/A   Scattered Clouds
12:35 PM 74.1 °F 55.6 °F 52% 30.15 in 10.0 mi SW 4.6 mph - N/A   Scattered Clouds
12:55 PM 73.9 °F 55.4 °F 52% 30.15 in 10.0 mi South 6.9 mph - N/A   Mostly Cloudy
1:15 PM 74.1 °F 55.0 °F 51% 30.15 in 10.0 mi SW 5.8 mph - N/A   Overcast
1:35 PM 77.5 °F 54.7 °F 45% 30.15 in 10.0 mi SSE 8.1 mph - N/A   Overcast
1:55 PM 76.5 °F 54.7 °F 47% 30.14 in 10.0 mi SW 9.2 mph - N/A   Overcast
2:15 PM 77.7 °F 54.0 °F 44% 30.14 in 10.0 mi South 15.0 mph 21.9 mph N/A   Overcast
2:35 PM 77.9 °F 53.1 °F 42% 30.14 in 10.0 mi SSE 8.1 mph 20.7 mph N/A   Mostly Cloudy
2:55 PM 75.0 °F 54.9 °F 49% 30.14 in 10.0 mi SSE 8.1 mph 16.1 mph N/A Rain Rain
3:15 PM 75.2 °F 55.8 °F 51% 30.13 in 10.0 mi South 4.6 mph - 0.01 in Rain Light Rain
3:35 PM 76.1 °F 55.4 °F 49% 30.12 in 10.0 mi South 13.8 mph - 0.01 in   Scattered Clouds
3:55 PM 75.0 °F 55.0 °F 50% 30.12 in 10.0 mi South 10.4 mph 25.3 mph 0.01 in   Clear
4:15 PM 77.0 °F 53.1 °F 43% 30.12 in 10.0 mi SE 10.4 mph - N/A   Clear
4:35 PM 79.3 °F 51.6 °F 38% 30.11 in 10.0 mi SSE 5.8 mph - N/A   Scattered Clouds
4:55 PM 79.0 °F 51.4 °F 38% 30.11 in 10.0 mi SSE 8.1 mph - N/A   Mostly Cloudy
5:15 PM 78.1 °F 50.4 °F 38% 30.11 in 10.0 mi SE 5.8 mph - N/A   Overcast
5:35 PM 78.1 °F 51.3 °F 39% 30.11 in 10.0 mi SSE 15.0 mph - N/A   Overcast
5:55 PM 77.9 °F 53.4 °F 43% 30.11 in 10.0 mi South 16.1 mph 20.7 mph N/A   Overcast
6:15 PM 76.6 °F 52.2 °F 42% 30.11 in 10.0 mi SSE 11.5 mph - N/A   Mostly Cloudy
6:35 PM 77.5 °F 52.9 °F 42% 30.11 in 10.0 mi South 11.5 mph 17.3 mph N/A   Scattered Clouds
6:55 PM 77.5 °F 52.0 °F 41% 30.12 in 10.0 mi South 11.5 mph - N/A   Clear
7:15 PM 76.1 °F 52.3 °F 43% 30.11 in 10.0 mi SE 9.2 mph - N/A   Scattered Clouds
7:35 PM 74.1 °F 53.6 °F 49% 30.11 in 10.0 mi SSE 10.4 mph 17.3 mph N/A Rain Light Rain
7:55 PM 73.4 °F 53.6 °F 50% 30.12 in 10.0 mi SSE 9.2 mph - N/A   Clear
8:15 PM 72.1 °F 54.0 °F 53% 30.11 in 10.0 mi SSE 6.9 mph - N/A   Clear
8:35 PM 71.1 °F 53.6 °F 54% 30.13 in 10.0 mi SSE 8.1 mph - N/A   Clear
8:55 PM 70.2 °F 53.6 °F 56% 30.15 in 10.0 mi South 6.9 mph - N/A   Clear
9:15 PM 69.4 °F 52.9 °F 56% 30.15 in 10.0 mi South 8.1 mph - N/A   Clear
9:35 PM 69.1 °F 52.9 °F 56% 30.16 in 10.0 mi South 8.1 mph - N/A   Clear
9:55 PM 68.9 °F 53.2 °F 57% 30.17 in 10.0 mi South 5.8 mph - N/A   Scattered Clouds
10:15 PM 68.9 °F 54.1 °F 59% 30.18 in 10.0 mi WSW 4.6 mph - N/A   Scattered Clouds
10:35 PM 67.5 °F 54.3 °F 63% 30.19 in 10.0 mi South 4.6 mph - N/A   Scattered Clouds
10:55 PM 68.7 °F 53.8 °F 59% 30.18 in 10.0 mi SSE 12.7 mph - N/A   Mostly Cloudy
11:15 PM 67.1 °F 51.1 °F 56% 30.18 in 10.0 mi SSE 15.0 mph - N/A   Scattered Clouds
11:35 PM 66.2 °F 50.0 °F 56% 30.19 in 10.0 mi SSE 15.0 mph - N/A   Clear
11:55 PM 65.3 °F 50.0 °F 58% 30.19 in 10.0 mi South 15.0 mph 19.6 mph N/A   Clear